Time,TemperatureF,DewpointF,PressureIn,WindDirection,WindDirectionDegrees,WindSpeedMPH,WindSpeedGustMPH,Humidity,HourlyPrecipIn,Conditions,Clouds,dailyrainin,SolarRadiationWatts/m^2,SoftwareType,DateUTC
2013-03-26 00:00:00,28.9,24.1,29.98,NW,316,2.0,15.0,82,0.00,,,0.00,0,HR-IXPWINDi_r2_v1.2.,2013-03-26 04:00:00,
2013-03-26 00:05:00,28.9,24.1,29.98,East,100,1.0,12.0,82,0.00,,,0.00,0,HR-IXPWINDi_r2_v1.2.,2013-03-26 04:05:00,
2013-03-26 00:10:00,28.9,24.1,29.99,NNW,332,3.0,15.0,82,0.00,,,0.00,0,HR-IXPWINDi_r2_v1.2.,2013-03-26 04:10:00,
2013-03-26 00:15:00,28.8,24.3,29.98,NW,311,0.0,19.0,83,0.00,,,0.00,0,HR-IXPWINDi_r2_v1.2.,2013-03-26 04:15:00,
2013-03-26 00:20:00,28.5,24.3,29.99,WNW,295,9.0,19.0,84,0.00,,,0.00,0,HR-IXPWINDi_r2_v1.2.,2013-03-26 04:20:00,
2013-03-26 00:26:00,28.4,24.5,29.99,SSW,192,1.0,14.0,85,0.00,,,0.00,0,HR-IXPWINDi_r2_v1.2.,2013-03-26 04:26:00,
2013-03-26 00:31:00,28.3,24.4,29.99,North,351,6.0,14.0,85,0.00,,,0.00,0,HR-IXPWINDi_r2_v1.2.,2013-03-26 04:31:00,
2013-03-26 00:36:00,28.2,24.5,29.99,NW,324,4.0,13.0,86,0.00,,,0.00,0,HR-IXPWINDi_r2_v1.2.,2013-03-26 04:36:00,
2013-03-26 00:41:00,28.1,24.7,29.99,North,355,2.0,11.0,87,0.00,,,0.00,0,HR-IXPWINDi_r2_v1.2.,2013-03-26 04:41:00,
2013-03-26 00:47:00,27.9,24.5,29.99,SW,215,0.0,11.0,87,0.00,,,0.00,0,HR-IXPWINDi_r2_v1.2.,2013-03-26 04:47:00,
2013-03-26 00:52:00,27.8,24.7,30.00,SSW,213,4.0,14.0,88,0.00,,,0.00,0,HR-IXPWINDi_r2_v1.2.,2013-03-26 04:52:00,
2013-03-26 00:57:00,27.7,24.9,30.00,SW,217,4.0,14.0,89,0.00,,,0.00,0,HR-IXPWINDi_r2_v1.2.,2013-03-26 04:57:00,
2013-03-26 01:02:00,27.7,24.9,30.00,SW,233,0.0,10.0,89,0.00,,,0.00,0,HR-IXPWINDi_r2_v1.2.,2013-03-26 05:02:00,
2013-03-26 01:09:00,27.7,24.9,30.00,SSE,167,6.0,11.0,89,0.00,,,0.00,0,HR-IXPWINDi_r2_v1.2.,2013-03-26 05:09:00,
2013-03-26 01:14:00,27.9,24.8,30.00,NW,322,4.0,11.0,88,0.00,,,0.00,0,HR-IXPWINDi_r2_v1.2.,2013-03-26 05:14:00,
2013-03-26 01:19:00,27.9,24.5,30.00,North,5,3.0,11.0,87,0.00,,,0.00,0,HR-IXPWINDi_r2_v1.2.,2013-03-26 05:19:00,
2013-03-26 01:24:00,27.9,24.5,30.00,South,186,0.0,8.0,87,0.00,,,0.00,0,HR-IXPWINDi_r2_v1.2.,2013-03-26 05:24:00,
2013-03-26 01:29:00,27.8,24.4,30.00,SW,217,2.0,7.0,87,0.00,,,0.00,0,HR-IXPWINDi_r2_v1.2.,2013-03-26 05:29:00,
2013-03-26 01:35:00,27.7,24.3,30.00,NW,308,0.0,7.0,87,0.00,,,0.00,0,HR-IXPWINDi_r2_v1.2.,2013-03-26 05:35:00,
2013-03-26 01:40:00,27.6,24.5,30.00,WNW,297,2.0,7.0,88,0.00,,,0.00,0,HR-IXPWINDi_r2_v1.2.,2013-03-26 05:40:00,
2013-03-26 01:45:00,27.5,24.4,30.00,West,281,0.0,7.0,88,0.00,,,0.00,0,HR-IXPWINDi_r2_v1.2.,2013-03-26 05:45:00,
2013-03-26 01:50:00,27.5,24.4,30.00,NNW,339,0.0,5.0,88,0.00,,,0.00,0,HR-IXPWINDi_r2_v1.2.,2013-03-26 05:50:00,
2013-03-26 01:55:00,27.5,24.4,30.00,SW,222,2.0,12.0,88,0.00,,,0.00,0,HR-IXPWINDi_r2_v1.2.,2013-03-26 05:55:00,
2013-03-26 02:00:00,27.5,24.4,30.01,SSW,211,3.0,12.0,88,0.00,,,0.00,0,HR-IXPWINDi_r2_v1.2.,2013-03-26 06:00:00,
2013-03-26 02:05:00,27.4,24.3,30.01,SSW,194,1.0,7.0,88,0.00,,,0.00,0,HR-IXPWINDi_r2_v1.2.,2013-03-26 06:05:00,
2013-03-26 02:10:00,27.4,24.3,30.00,North,355,2.0,7.0,88,0.00,,,0.00,0,HR-IXPWINDi_r2_v1.2.,2013-03-26 06:10:00,
2013-03-26 02:15:00,27.4,24.3,30.00,West,266,2.0,7.0,88,0.00,,,0.00,0,HR-IXPWINDi_r2_v1.2.,2013-03-26 06:15:00,
2013-03-26 02:21:00,27.3,24.2,30.00,NNW,334,3.0,8.0,88,0.00,,,0.00,0,HR-IXPWINDi_r2_v1.2.,2013-03-26 06:21:00,
2013-03-26 02:26:00,27.2,24.1,30.00,South,174,6.0,8.0,88,0.00,,,0.00,0,HR-IXPWINDi_r2_v1.2.,2013-03-26 06:26:00,
2013-03-26 02:31:00,27.2,24.1,30.00,SSW,213,4.0,10.0,88,0.00,,,0.00,0,HR-IXPWINDi_r2_v1.2.,2013-03-26 06:31:00,
2013-03-26 02:36:00,27.2,24.1,30.00,WNW,296,3.0,10.0,88,0.00,,,0.00,0,HR-IXPWINDi_r2_v1.2.,2013-03-26 06:36:00,
2013-03-26 02:41:00,27.2,24.1,30.00,WNW,288,1.0,11.0,88,0.00,,,0.00,0,HR-IXPWINDi_r2_v1.2.,2013-03-26 06:41:00,
2013-03-26 02:47:00,27.2,24.4,30.00,SSW,204,4.0,11.0,89,0.00,,,0.00,0,HR-IXPWINDi_r2_v1.2.,2013-03-26 06:47:00,
2013-03-26 02:52:00,27.2,24.4,30.00,SW,225,2.0,6.0,89,0.00,,,0.00,0,HR-IXPWINDi_r2_v1.2.,2013-03-26 06:52:00,
2013-03-26 02:57:00,27.2,24.4,30.01,NNW,335,2.0,11.0,89,0.00,,,0.00,0,HR-IXPWINDi_r2_v1.2.,2013-03-26 06:57:00,
2013-03-26 03:02:00,27.3,24.5,30.00,NNW,335,0.0,11.0,89,0.00,,,0.00,0,HR-IXPWINDi_r2_v1.2.,2013-03-26 07:02:00,
2013-03-26 03:08:00,27.2,24.1,30.01,South,188,6.0,9.0,88,0.00,,,0.00,0,HR-IXPWINDi_r2_v1.2.,2013-03-26 07:08:00,
2013-03-26 03:13:00,27.2,24.1,30.00,South,189,4.0,11.0,88,0.00,,,0.00,0,HR-IXPWINDi_r2_v1.2.,2013-03-26 07:13:00,
2013-03-26 03:18:00,27.2,24.1,30.00,SE,129,2.0,11.0,88,0.00,,,0.00,0,HR-IXPWINDi_r2_v1.2.,2013-03-26 07:18:00,
2013-03-26 03:23:00,27.2,24.1,30.00,NNW,338,0.0,12.0,88,0.00,,,0.00,0,HR-IXPWINDi_r2_v1.2.,2013-03-26 07:23:00,
2013-03-26 03:28:00,27.3,24.2,30.00,SSW,198,0.0,12.0,88,0.00,,,0.00,0,HR-IXPWINDi_r2_v1.2.,2013-03-26 07:28:00,
2013-03-26 03:33:00,27.3,24.2,30.01,NNW,330,3.0,8.0,88,0.00,,,0.00,0,HR-IXPWINDi_r2_v1.2.,2013-03-26 07:33:00,
2013-03-26 03:39:00,27.2,24.1,30.00,SSW,207,4.0,8.0,88,0.00,,,0.00,0,HR-IXPWINDi_r2_v1.2.,2013-03-26 07:39:00,
2013-03-26 03:44:00,27.3,24.2,30.00,SW,225,1.0,6.0,88,0.00,,,0.00,0,HR-IXPWINDi_r2_v1.2.,2013-03-26 07:44:00,
2013-03-26 03:49:00,27.3,24.2,30.00,SW,230,2.0,5.0,88,0.00,,,0.00,0,HR-IXPWINDi_r2_v1.2.,2013-03-26 07:49:00,
2013-03-26 03:54:00,27.2,24.1,30.00,SW,231,0.0,5.0,88,0.00,,,0.00,0,HR-IXPWINDi_r2_v1.2.,2013-03-26 07:54:00,
2013-03-26 04:00:00,27.2,24.1,30.00,North,360,3.0,5.0,88,0.00,,,0.00,0,HR-IXPWINDi_r2_v1.2.,2013-03-26 08:00:00,
2013-03-26 04:05:00,27.2,24.1,30.00,NNE,30,0.0,6.0,88,0.00,,,0.00,0,HR-IXPWINDi_r2_v1.2.,2013-03-26 08:05:00,
2013-03-26 04:10:00,27.2,24.1,30.00,WSW,246,0.0,7.0,88,0.00,,,0.00,0,HR-IXPWINDi_r2_v1.2.,2013-03-26 08:10:00,
2013-03-26 04:15:00,27.2,24.1,30.00,SW,227,0.0,7.0,88,0.00,,,0.00,0,HR-IXPWINDi_r2_v1.2.,2013-03-26 08:15:00,
2013-03-26 04:20:00,27.2,24.1,30.00,NW,317,2.0,6.0,88,0.00,,,0.00,0,HR-IXPWINDi_r2_v1.2.,2013-03-26 08:20:00,
2013-03-26 04:26:00,27.2,24.1,30.00,ESE,102,2.0,7.0,88,0.00,,,0.00,0,HR-IXPWINDi_r2_v1.2.,2013-03-26 08:26:00,
2013-03-26 04:31:00,27.2,24.1,30.00,SSW,205,2.0,7.0,88,0.00,,,0.00,0,HR-IXPWINDi_r2_v1.2.,2013-03-26 08:31:00,
2013-03-26 04:36:00,27.2,24.1,30.00,WNW,294,2.0,7.0,88,0.00,,,0.00,0,HR-IXPWINDi_r2_v1.2.,2013-03-26 08:36:00,
2013-03-26 04:41:00,27.2,24.1,30.00,West,277,1.0,9.0,88,0.00,,,0.00,0,HR-IXPWINDi_r2_v1.2.,2013-03-26 08:41:00,
2013-03-26 04:46:00,27.2,24.1,30.00,NW,323,0.0,9.0,88,0.00,,,0.00,0,HR-IXPWINDi_r2_v1.2.,2013-03-26 08:46:00,
2013-03-26 04:51:00,27.1,24.3,30.00,North,350,1.0,6.0,89,0.00,,,0.00,0,HR-IXPWINDi_r2_v1.2.,2013-03-26 08:51:00,
2013-03-26 04:57:00,27.0,24.2,30.00,SW,223,0.0,6.0,89,0.00,,,0.00,0,HR-IXPWINDi_r2_v1.2.,2013-03-26 08:57:00,
2013-03-26 05:02:00,27.0,24.5,30.00,WSW,248,1.0,7.0,90,0.00,,,0.00,0,HR-IXPWINDi_r2_v1.2.,2013-03-26 09:02:00,
2013-03-26 05:07:00,27.1,24.6,30.00,WNW,301,2.0,7.0,90,0.00,,,0.00,0,HR-IXPWINDi_r2_v1.2.,2013-03-26 09:07:00,
2013-03-26 05:12:00,27.1,24.6,30.00,NNW,330,0.0,7.0,90,0.00,,,0.00,0,HR-IXPWINDi_r2_v1.2.,2013-03-26 09:12:00,
2013-03-26 05:17:00,27.1,24.6,30.00,West,271,3.0,7.0,90,0.00,,,0.00,0,HR-IXPWINDi_r2_v1.2.,2013-03-26 09:17:00,
2013-03-26 05:22:00,27.2,24.6,30.00,WNW,286,0.0,7.0,90,0.00,,,0.00,0,HR-IXPWINDi_r2_v1.2.,2013-03-26 09:22:00,
2013-03-26 05:28:00,27.0,24.5,30.00,SW,227,2.0,3.0,90,0.00,,,0.00,0,HR-IXPWINDi_r2_v1.2.,2013-03-26 09:28:00,
2013-03-26 05:33:00,27.0,24.5,30.00,SSW,202,0.0,6.0,90,0.00,,,0.00,0,HR-IXPWINDi_r2_v1.2.,2013-03-26 09:33:00,
2013-03-26 05:38:00,26.9,24.4,30.00,SSW,202,2.0,6.0,90,0.00,,,0.00,0,HR-IXPWINDi_r2_v1.2.,2013-03-26 09:38:00,
2013-03-26 05:43:00,26.9,24.4,30.00,SSW,209,0.0,5.0,90,0.00,,,0.00,0,HR-IXPWINDi_r2_v1.2.,2013-03-26 09:43:00,
2013-03-26 05:49:00,26.9,24.4,30.01,West,263,0.0,5.0,90,0.00,,,0.00,0,HR-IXPWINDi_r2_v1.2.,2013-03-26 09:49:00,
2013-03-26 05:54:00,26.9,24.4,30.01,West,261,2.0,6.0,90,0.00,,,0.00,0,HR-IXPWINDi_r2_v1.2.,2013-03-26 09:54:00,
2013-03-26 05:59:00,26.9,24.4,30.01,West,261,1.0,6.0,90,0.00,,,0.00,0,HR-IXPWINDi_r2_v1.2.,2013-03-26 09:59:00,
2013-03-26 06:04:00,26.9,24.6,30.01,WSW,252,0.0,3.0,91,0.00,,,0.00,0,HR-IXPWINDi_r2_v1.2.,2013-03-26 10:04:00,
2013-03-26 06:09:00,26.9,24.6,30.01,WSW,252,0.0,3.0,91,0.00,,,0.00,0,HR-IXPWINDi_r2_v1.2.,2013-03-26 10:09:00,
2013-03-26 06:14:00,27.0,24.7,30.01,WSW,251,1.0,3.0,91,0.00,,,0.00,0,HR-IXPWINDi_r2_v1.2.,2013-03-26 10:14:00,
2013-03-26 06:20:00,27.0,24.7,30.01,WSW,242,0.0,3.0,91,0.00,,,0.00,0,HR-IXPWINDi_r2_v1.2.,2013-03-26 10:20:00,
2013-03-26 06:25:00,26.9,24.6,30.01,SSW,202,0.0,6.0,91,0.00,,,0.00,0,HR-IXPWINDi_r2_v1.2.,2013-03-26 10:25:00,
2013-03-26 06:30:00,27.1,24.8,30.01,West,277,0.0,6.0,91,0.00,,,0.00,0,HR-IXPWINDi_r2_v1.2.,2013-03-26 10:30:00,
2013-03-26 06:36:00,27.2,24.9,30.01,SW,216,0.0,6.0,91,0.00,,,0.00,0,HR-IXPWINDi_r2_v1.2.,2013-03-26 10:36:00,
2013-03-26 06:41:00,27.1,24.6,30.01,WSW,246,0.0,6.0,90,0.00,,,0.00,0,HR-IXPWINDi_r2_v1.2.,2013-03-26 10:41:00,
2013-03-26 06:46:00,27.0,24.5,30.01,SSW,209,1.0,7.0,90,0.00,,,0.00,0,HR-IXPWINDi_r2_v1.2.,2013-03-26 10:46:00,
2013-03-26 06:51:00,27.1,24.8,30.02,NNE,18,0.0,7.0,91,0.00,,,0.00,0,HR-IXPWINDi_r2_v1.2.,2013-03-26 10:51:00,
2013-03-26 06:57:00,27.1,24.8,30.02,South,184,3.0,10.0,91,0.00,,,0.00,0,HR-IXPWINDi_r2_v1.2.,2013-03-26 10:57:00,
2013-03-26 07:02:00,27.1,24.8,30.02,SSW,211,4.0,10.0,91,0.00,,,0.00,0,HR-IXPWINDi_r2_v1.2.,2013-03-26 11:02:00,
2013-03-26 07:07:00,27.1,24.8,30.02,SW,221,0.0,8.0,91,0.00,,,0.00,0,HR-IXPWINDi_r2_v1.2.,2013-03-26 11:07:00,
2013-03-26 07:12:00,27.1,24.8,30.02,SW,221,2.0,7.0,91,0.00,,,0.00,0,HR-IXPWINDi_r2_v1.2.,2013-03-26 11:12:00,
2013-03-26 07:17:00,27.1,24.8,30.03,SSW,194,3.0,5.0,91,0.00,,,0.00,0,HR-IXPWINDi_r2_v1.2.,2013-03-26 11:17:00,
2013-03-26 07:22:00,27.0,24.7,30.03,SSW,197,2.0,5.0,91,0.00,,,0.00,0,HR-IXPWINDi_r2_v1.2.,2013-03-26 11:22:00,
2013-03-26 07:27:00,27.0,24.7,30.03,SSE,147,4.0,4.0,91,0.00,,,0.00,0,HR-IXPWINDi_r2_v1.2.,2013-03-26 11:27:00,
2013-03-26 07:33:00,27.0,24.7,30.03,SW,228,0.0,5.0,91,0.00,,,0.00,0,HR-IXPWINDi_r2_v1.2.,2013-03-26 11:33:00,
2013-03-26 07:38:00,27.0,24.7,30.04,SW,227,3.0,5.0,91,0.00,,,0.00,0,HR-IXPWINDi_r2_v1.2.,2013-03-26 11:38:00,
2013-03-26 07:43:00,27.1,24.8,30.04,SW,216,0.0,3.0,91,0.00,,,0.00,0,HR-IXPWINDi_r2_v1.2.,2013-03-26 11:43:00,
2013-03-26 07:48:00,27.0,24.7,30.04,SW,214,0.0,3.0,91,0.00,,,0.00,0,HR-IXPWINDi_r2_v1.2.,2013-03-26 11:48:00,
2013-03-26 07:53:00,27.0,25.0,30.04,SW,215,0.0,3.0,92,0.00,,,0.00,0,HR-IXPWINDi_r2_v1.2.,2013-03-26 11:53:00,
2013-03-26 07:58:00,27.0,25.0,30.04,SW,215,0.0,3.0,92,0.00,,,0.00,5,HR-IXPWINDi_r2_v1.2.,2013-03-26 11:58:00,
2013-03-26 08:03:00,27.1,25.1,30.04,SSW,205,0.0,3.0,92,0.00,,,0.00,7,HR-IXPWINDi_r2_v1.2.,2013-03-26 12:03:00,
2013-03-26 08:09:00,27.2,25.2,30.04,SSW,206,0.0,6.0,92,0.00,,,0.00,7,HR-IXPWINDi_r2_v1.2.,2013-03-26 12:09:00,
2013-03-26 08:14:00,27.3,25.3,30.05,SW,220,5.0,6.0,92,0.00,,,0.00,9,HR-IXPWINDi_r2_v1.2.,2013-03-26 12:14:00,
2013-03-26 08:19:00,27.4,25.1,30.05,WSW,250,4.0,5.0,91,0.00,,,0.00,7,HR-IXPWINDi_r2_v1.2.,2013-03-26 12:19:00,
2013-03-26 08:24:00,27.4,25.1,30.05,WNW,294,0.0,10.0,91,0.00,,,0.00,16,HR-IXPWINDi_r2_v1.2.,2013-03-26 12:24:00,
2013-03-26 08:29:00,27.5,25.2,30.05,SW,233,0.0,10.0,91,0.00,,,0.00,16,HR-IXPWINDi_r2_v1.2.,2013-03-26 12:29:00,
2013-03-26 08:34:00,27.5,25.2,30.05,SSW,203,0.0,4.0,91,0.00,,,0.00,14,HR-IXPWINDi_r2_v1.2.,2013-03-26 12:34:00,
2013-03-26 08:40:00,27.6,25.6,30.06,SE,140,0.0,5.0,92,0.00,,,0.00,23,HR-IXPWINDi_r2_v1.2.,2013-03-26 12:40:00,
2013-03-26 08:45:00,27.7,25.4,30.06,West,263,1.0,6.0,91,0.00,,,0.00,19,HR-IXPWINDi_r2_v1.2.,2013-03-26 12:45:00,
2013-03-26 08:50:00,27.8,25.5,30.06,SW,219,1.0,6.0,91,0.00,,,0.00,26,HR-IXPWINDi_r2_v1.2.,2013-03-26 12:50:00,
2013-03-26 08:55:00,27.9,25.6,30.06,SW,219,0.0,3.0,91,0.00,,,0.00,23,HR-IXPWINDi_r2_v1.2.,2013-03-26 12:55:00,
2013-03-26 09:00:00,27.9,25.6,30.07,WSW,241,2.0,4.0,91,0.00,,,0.00,32,HR-IXPWINDi_r2_v1.2.,2013-03-26 13:00:00,
2013-03-26 09:05:00,28.1,25.8,30.07,WSW,248,0.0,4.0,91,0.00,,,0.00,25,HR-IXPWINDi_r2_v1.2.,2013-03-26 13:05:00,
2013-03-26 09:10:00,28.2,25.9,30.07,NNW,341,0.0,4.0,91,0.00,,,0.00,21,HR-IXPWINDi_r2_v1.2.,2013-03-26 13:10:00,
2013-03-26 09:15:00,28.1,25.8,30.07,West,265,1.0,6.0,91,0.00,,,0.00,35,HR-IXPWINDi_r2_v1.2.,2013-03-26 13:15:00,
2013-03-26 09:20:00,28.3,26.0,30.08,SW,221,0.0,6.0,91,0.00,,,0.00,42,HR-IXPWINDi_r2_v1.2.,2013-03-26 13:20:00,
2013-03-26 09:26:00,28.4,26.1,30.08,South,184,5.0,6.0,91,0.00,,,0.00,33,HR-IXPWINDi_r2_v1.2.,2013-03-26 13:26:00,
2013-03-26 09:31:00,28.4,25.8,30.08,South,177,4.0,7.0,90,0.00,,,0.00,33,HR-IXPWINDi_r2_v1.2.,2013-03-26 13:31:00,
2013-03-26 09:36:00,28.5,25.9,30.09,NW,309,3.0,10.0,90,0.00,,,0.00,35,HR-IXPWINDi_r2_v1.2.,2013-03-26 13:36:00,
2013-03-26 09:41:00,28.5,25.9,30.09,SSW,205,2.0,10.0,90,0.00,,,0.00,35,HR-IXPWINDi_r2_v1.2.,2013-03-26 13:41:00,
2013-03-26 09:46:00,28.8,26.2,30.09,SW,229,0.0,5.0,90,0.00,,,0.00,28,HR-IXPWINDi_r2_v1.2.,2013-03-26 13:46:00,
2013-03-26 09:52:00,28.8,26.2,30.09,WSW,243,0.0,5.0,90,0.00,,,0.00,30,HR-IXPWINDi_r2_v1.2.,2013-03-26 13:52:00,
2013-03-26 09:57:00,28.7,26.1,30.09,SW,230,0.0,7.0,90,0.00,,,0.00,33,HR-IXPWINDi_r2_v1.2.,2013-03-26 13:57:00,
2013-03-26 10:02:00,29.0,26.4,30.09,SW,230,0.0,7.0,90,0.00,,,0.00,35,HR-IXPWINDi_r2_v1.2.,2013-03-26 14:02:00,
2013-03-26 10:07:00,29.2,26.6,30.09,SSW,206,0.0,3.0,90,0.00,,,0.00,53,HR-IXPWINDi_r2_v1.2.,2013-03-26 14:07:00,
2013-03-26 10:12:00,29.3,26.7,30.10,SSE,161,1.0,3.0,90,0.00,,,0.00,35,HR-IXPWINDi_r2_v1.2.,2013-03-26 14:12:00,
2013-03-26 10:17:00,29.2,26.3,30.10,SSE,167,4.0,5.0,89,0.00,,,0.00,46,HR-IXPWINDi_r2_v1.2.,2013-03-26 14:17:00,
2013-03-26 10:22:00,29.3,26.4,30.10,WSW,240,1.0,7.0,89,0.00,,,0.00,49,HR-IXPWINDi_r2_v1.2.,2013-03-26 14:22:00,
2013-03-26 10:27:00,29.7,26.8,30.11,North,5,10.0,10.0,89,0.00,,,0.00,60,HR-IXPWINDi_r2_v1.2.,2013-03-26 14:27:00,
2013-03-26 10:32:00,29.8,26.7,30.11,NW,323,0.0,11.0,88,0.00,,,0.00,56,HR-IXPWINDi_r2_v1.2.,2013-03-26 14:32:00,
2013-03-26 10:38:00,29.9,26.5,30.11,SSW,196,0.0,11.0,87,0.00,,,0.00,53,HR-IXPWINDi_r2_v1.2.,2013-03-26 14:38:00,
2013-03-26 10:43:00,30.0,26.6,30.11,South,184,2.0,5.0,87,0.00,,,0.00,51,HR-IXPWINDi_r2_v1.2.,2013-03-26 14:43:00,
2013-03-26 10:48:00,30.1,26.7,30.11,North,349,4.0,6.0,87,0.00,,,0.00,51,HR-IXPWINDi_r2_v1.2.,2013-03-26 14:48:00,
2013-03-26 10:53:00,30.2,26.8,30.11,NNW,344,2.0,8.0,87,0.00,,,0.00,49,HR-IXPWINDi_r2_v1.2.,2013-03-26 14:53:00,
2013-03-26 10:58:00,30.4,27.0,30.12,NW,309,0.0,8.0,87,0.00,,,0.00,65,HR-IXPWINDi_r2_v1.2.,2013-03-26 14:58:00,
2013-03-26 11:04:00,30.3,26.9,30.12,West,274,1.0,6.0,87,0.00,,,0.00,67,HR-IXPWINDi_r2_v1.2.,2013-03-26 15:04:00,
2013-03-26 11:09:00,30.1,26.7,30.12,West,277,0.0,5.0,87,0.00,,,0.00,49,HR-IXPWINDi_r2_v1.2.,2013-03-26 15:09:00,
2013-03-26 11:14:00,30.2,27.1,30.12,WSW,242,0.0,5.0,88,0.00,,,0.00,77,HR-IXPWINDi_r2_v1.2.,2013-03-26 15:14:00,
2013-03-26 11:19:00,30.4,27.3,30.13,SW,214,3.0,4.0,88,0.00,,,0.00,47,HR-IXPWINDi_r2_v1.2.,2013-03-26 15:19:00,
2013-03-26 11:24:00,30.3,27.2,30.13,SSW,210,0.0,5.0,88,0.00,,,0.00,70,HR-IXPWINDi_r2_v1.2.,2013-03-26 15:24:00,
2013-03-26 11:29:00,30.1,27.0,30.13,SW,216,0.0,6.0,88,0.00,,,0.00,49,HR-IXPWINDi_r2_v1.2.,2013-03-26 15:29:00,
2013-03-26 11:34:00,30.0,26.9,30.13,NNW,339,0.0,10.0,88,0.00,,,0.00,47,HR-IXPWINDi_r2_v1.2.,2013-03-26 15:34:00,
2013-03-26 11:39:00,30.1,27.0,30.14,South,188,0.0,10.0,88,0.00,,,0.01,42,HR-IXPWINDi_r2_v1.2.,2013-03-26 15:39:00,
2013-03-26 11:44:00,30.1,27.0,30.14,SW,217,0.0,6.0,88,0.00,,,0.01,62,HR-IXPWINDi_r2_v1.2.,2013-03-26 15:44:00,
2013-03-26 11:49:00,30.3,27.2,30.14,WSW,257,3.0,6.0,88,0.00,,,0.01,63,HR-IXPWINDi_r2_v1.2.,2013-03-26 15:49:00,
2013-03-26 11:54:00,30.6,27.2,30.14,South,169,2.0,6.0,87,0.04,,,0.02,63,HR-IXPWINDi_r2_v1.2.,2013-03-26 15:54:00,
2013-03-26 12:00:00,30.8,27.4,30.14,WSW,243,0.0,5.0,87,0.04,,,0.02,56,HR-IXPWINDi_r2_v1.2.,2013-03-26 16:00:00,
2013-03-26 12:05:00,30.8,27.4,30.14,NNW,348,3.0,7.0,87,0.04,,,0.02,72,HR-IXPWINDi_r2_v1.2.,2013-03-26 16:05:00,
2013-03-26 12:11:00,30.9,27.2,30.14,East,101,1.0,7.0,86,0.00,,,0.02,93,HR-IXPWINDi_r2_v1.2.,2013-03-26 16:11:00,
2013-03-26 12:16:00,31.6,27.6,30.14,NW,308,0.0,6.0,85,0.00,,,0.03,123,HR-IXPWINDi_r2_v1.2.,2013-03-26 16:16:00,
2013-03-26 12:21:00,31.8,27.5,30.14,North,11,0.0,7.0,84,0.00,,,0.03,128,HR-IXPWINDi_r2_v1.2.,2013-03-26 16:21:00,
2013-03-26 12:26:00,31.8,27.5,30.14,WNW,302,4.0,7.0,84,0.00,,,0.03,142,HR-IXPWINDi_r2_v1.2.,2013-03-26 16:26:00,
2013-03-26 12:31:00,32.6,28.3,30.14,North,10,2.0,5.0,84,0.04,,,0.04,403,HR-IXPWINDi_r2_v1.2.,2013-03-26 16:31:00,
2013-03-26 12:36:00,32.7,27.5,30.14,NNW,343,4.0,11.0,81,0.04,,,0.04,399,HR-IXPWINDi_r2_v1.2.,2013-03-26 16:36:00,
2013-03-26 12:42:00,32.8,27.9,30.15,NW,307,3.0,11.0,82,0.07,,,0.05,211,HR-IXPWINDi_r2_v1.2.,2013-03-26 16:42:00,
2013-03-26 12:47:00,32.4,28.1,30.14,NW,326,0.0,6.0,84,0.06,,,0.05,288,HR-IXPWINDi_r2_v1.2.,2013-03-26 16:47:00,
2013-03-26 12:52:00,32.2,27.6,30.15,WNW,296,4.0,11.0,83,0.06,,,0.06,167,HR-IXPWINDi_r2_v1.2.,2013-03-26 16:52:00,
2013-03-26 12:57:00,32.0,27.7,30.15,NNW,346,5.0,11.0,84,0.06,,,0.06,202,HR-IXPWINDi_r2_v1.2.,2013-03-26 16:57:00,
2013-03-26 13:02:00,31.9,27.6,30.15,WNW,294,3.0,7.0,84,0.04,,,0.06,144,HR-IXPWINDi_r2_v1.2.,2013-03-26 17:02:00,
2013-03-26 13:07:00,31.7,27.4,30.15,NNW,338,3.0,7.0,84,0.00,,,0.06,248,HR-IXPWINDi_r2_v1.2.,2013-03-26 17:07:00,
2013-03-26 13:12:00,31.9,27.9,30.15,SW,231,1.0,11.0,85,0.00,,,0.07,297,HR-IXPWINDi_r2_v1.2.,2013-03-26 17:12:00,
2013-03-26 13:17:00,33.0,29.0,30.15,South,191,3.0,11.0,85,0.00,,,0.07,1032,HR-IXPWINDi_r2_v1.2.,2013-03-26 17:17:00,
2013-03-26 13:23:00,33.3,28.7,30.15,SSE,168,6.0,10.0,83,0.00,,,0.07,288,HR-IXPWINDi_r2_v1.2.,2013-03-26 17:23:00,
2013-03-26 13:28:00,33.1,28.5,30.15,SW,222,1.0,8.0,83,0.00,,,0.07,309,HR-IXPWINDi_r2_v1.2.,2013-03-26 17:28:00,
2013-03-26 13:33:00,32.8,28.5,30.15,North,350,4.0,8.0,84,0.00,,,0.08,218,HR-IXPWINDi_r2_v1.2.,2013-03-26 17:33:00,
2013-03-26 13:38:00,32.3,28.0,30.14,SSW,197,4.0,11.0,84,0.00,,,0.08,227,HR-IXPWINDi_r2_v1.2.,2013-03-26 17:38:00,
2013-03-26 13:43:00,33.0,29.0,30.15,NNW,328,4.0,11.0,85,0.00,,,0.08,271,HR-IXPWINDi_r2_v1.2.,2013-03-26 17:43:00,
2013-03-26 13:48:00,33.0,28.7,30.14,NW,310,3.0,14.0,84,0.00,,,0.08,362,HR-IXPWINDi_r2_v1.2.,2013-03-26 17:48:00,
2013-03-26 13:54:00,32.8,28.2,30.15,NNE,21,4.0,14.0,83,0.00,,,0.09,186,HR-IXPWINDi_r2_v1.2.,2013-03-26 17:54:00,
2013-03-26 13:59:00,32.5,27.9,30.15,South,190,3.0,12.0,83,0.00,,,0.09,369,HR-IXPWINDi_r2_v1.2.,2013-03-26 17:59:00,
2013-03-26 14:04:00,33.2,28.9,30.15,WNW,283,5.0,9.0,84,0.00,,,0.09,362,HR-IXPWINDi_r2_v1.2.,2013-03-26 18:04:00,
2013-03-26 14:09:00,33.2,28.6,30.14,West,265,0.0,9.0,83,0.00,,,0.10,190,HR-IXPWINDi_r2_v1.2.,2013-03-26 18:09:00,
2013-03-26 14:14:00,33.2,28.0,30.14,SSW,198,5.0,10.0,81,0.00,,,0.10,120,HR-IXPWINDi_r2_v1.2.,2013-03-26 18:14:00,
2013-03-26 14:19:00,32.8,28.2,30.15,NNW,335,18.0,18.0,83,0.00,,,0.10,144,HR-IXPWINDi_r2_v1.2.,2013-03-26 18:19:00,
2013-03-26 14:24:00,32.3,28.0,30.15,NNW,346,0.0,21.0,84,0.00,,,0.10,272,HR-IXPWINDi_r2_v1.2.,2013-03-26 18:24:00,
2013-03-26 14:30:00,32.5,28.5,30.15,NNW,341,4.0,21.0,85,0.00,,,0.10,264,HR-IXPWINDi_r2_v1.2.,2013-03-26 18:30:00,
2013-03-26 14:35:00,32.1,28.4,30.15,NW,325,4.0,8.0,86,0.00,,,0.10,225,HR-IXPWINDi_r2_v1.2.,2013-03-26 18:35:00,
2013-03-26 14:40:00,32.3,28.6,30.15,NNW,339,0.0,10.0,86,0.00,,,0.10,230,HR-IXPWINDi_r2_v1.2.,2013-03-26 18:40:00,
2013-03-26 14:45:00,32.5,28.8,30.15,NNE,16,0.0,10.0,86,0.00,,,0.10,236,HR-IXPWINDi_r2_v1.2.,2013-03-26 18:45:00,
2013-03-26 14:50:00,32.4,28.4,30.16,NW,305,5.0,7.0,85,0.00,,,0.11,188,HR-IXPWINDi_r2_v1.2.,2013-03-26 18:50:00,
2013-03-26 14:56:00,32.3,28.0,30.15,North,355,1.0,5.0,84,0.00,,,0.11,216,HR-IXPWINDi_r2_v1.2.,2013-03-26 18:56:00,
2013-03-26 15:01:00,32.7,28.1,30.15,North,360,0.0,6.0,83,0.00,,,0.11,199,HR-IXPWINDi_r2_v1.2.,2013-03-26 19:01:00,
2013-03-26 15:06:00,32.8,28.5,30.15,WSW,252,0.0,6.0,84,0.00,,,0.11,271,HR-IXPWINDi_r2_v1.2.,2013-03-26 19:06:00,
2013-03-26 15:12:00,32.7,28.1,30.15,WNW,289,1.0,6.0,83,0.00,,,0.11,258,HR-IXPWINDi_r2_v1.2.,2013-03-26 19:12:00,
2013-03-26 15:17:00,33.0,28.4,30.15,NNW,340,0.0,6.0,83,0.00,,,0.11,272,HR-IXPWINDi_r2_v1.2.,2013-03-26 19:17:00,
2013-03-26 15:22:00,33.3,28.4,30.16,WNW,282,0.0,7.0,82,0.00,,,0.11,174,HR-IXPWINDi_r2_v1.2.,2013-03-26 19:22:00,
2013-03-26 15:27:00,32.6,27.4,30.16,NW,308,0.0,7.0,81,0.00,,,0.12,65,HR-IXPWINDi_r2_v1.2.,2013-03-26 19:27:00,
2013-03-26 15:32:00,32.5,27.9,30.16,NNW,341,6.0,9.0,83,0.00,,,0.12,93,HR-IXPWINDi_r2_v1.2.,2013-03-26 19:32:00,
2013-03-26 15:37:00,31.9,29.0,30.16,North,9,2.0,12.0,89,0.00,,,0.12,74,HR-IXPWINDi_r2_v1.2.,2013-03-26 19:37:00,
2013-03-26 15:43:00,31.5,27.5,30.16,NNW,346,8.0,12.0,85,0.00,,,0.12,105,HR-IXPWINDi_r2_v1.2.,2013-03-26 19:43:00,
2013-03-26 15:48:00,31.7,27.7,30.17,NW,305,3.0,9.0,85,0.00,,,0.12,185,HR-IXPWINDi_r2_v1.2.,2013-03-26 19:48:00,
2013-03-26 15:53:00,32.0,27.7,30.17,North,360,7.0,9.0,84,0.00,,,0.12,211,HR-IXPWINDi_r2_v1.2.,2013-03-26 19:53:00,
2013-03-26 15:58:00,32.4,28.1,30.17,North,5,4.0,8.0,84,0.00,,,0.12,146,HR-IXPWINDi_r2_v1.2.,2013-03-26 19:58:00,
2013-03-26 16:04:00,32.2,27.9,30.17,WNW,303,7.0,12.0,84,0.00,,,0.12,65,HR-IXPWINDi_r2_v1.2.,2013-03-26 20:04:00,
2013-03-26 16:09:00,32.2,27.9,30.17,NNE,13,3.0,12.0,84,0.00,,,0.12,62,HR-IXPWINDi_r2_v1.2.,2013-03-26 20:09:00,
2013-03-26 16:14:00,31.8,27.5,30.17,NE,44,1.0,12.0,84,0.00,,,0.12,72,HR-IXPWINDi_r2_v1.2.,2013-03-26 20:14:00,
2013-03-26 16:19:00,31.7,27.4,30.17,NNW,346,2.0,5.0,84,0.00,,,0.12,67,HR-IXPWINDi_r2_v1.2.,2013-03-26 20:19:00,
2013-03-26 16:24:00,31.7,27.4,30.17,SSW,211,2.0,5.0,84,0.00,,,0.12,63,HR-IXPWINDi_r2_v1.2.,2013-03-26 20:24:00,
2013-03-26 16:29:00,31.7,27.4,30.17,West,265,4.0,5.0,84,0.00,,,0.12,74,HR-IXPWINDi_r2_v1.2.,2013-03-26 20:29:00,
2013-03-26 16:35:00,31.7,27.1,30.17,SW,226,1.0,8.0,83,0.00,,,0.12,77,HR-IXPWINDi_r2_v1.2.,2013-03-26 20:35:00,
2013-03-26 16:40:00,31.9,27.6,30.17,WSW,243,0.0,8.0,84,0.00,,,0.12,69,HR-IXPWINDi_r2_v1.2.,2013-03-26 20:40:00,
2013-03-26 16:45:00,31.6,27.3,30.17,SW,219,0.0,6.0,84,0.00,,,0.12,67,HR-IXPWINDi_r2_v1.2.,2013-03-26 20:45:00,
2013-03-26 16:51:00,31.5,27.5,30.18,North,355,1.0,7.0,85,0.00,,,0.12,95,HR-IXPWINDi_r2_v1.2.,2013-03-26 20:51:00,
2013-03-26 16:56:00,31.9,28.2,30.18,WNW,294,6.0,7.0,86,0.00,,,0.12,121,HR-IXPWINDi_r2_v1.2.,2013-03-26 20:56:00,
2013-03-26 17:01:00,31.9,27.6,30.18,North,355,5.0,6.0,84,0.00,,,0.12,148,HR-IXPWINDi_r2_v1.2.,2013-03-26 21:01:00,
2013-03-26 17:07:00,31.9,27.9,30.18,West,274,1.0,9.0,85,0.00,,,0.12,120,HR-IXPWINDi_r2_v1.2.,2013-03-26 21:07:00,
2013-03-26 17:12:00,31.9,27.6,30.18,SW,226,0.0,9.0,84,0.00,,,0.12,144,HR-IXPWINDi_r2_v1.2.,2013-03-26 21:12:00,
2013-03-26 17:17:00,32.1,28.1,30.18,WSW,242,1.0,7.0,85,0.00,,,0.12,107,HR-IXPWINDi_r2_v1.2.,2013-03-26 21:17:00,
2013-03-26 17:23:00,32.0,27.7,30.18,NE,49,2.0,7.0,84,0.00,,,0.12,58,HR-IXPWINDi_r2_v1.2.,2013-03-26 21:23:00,
2013-03-26 17:28:00,31.9,27.6,30.19,North,360,0.0,9.0,84,0.00,,,0.12,53,HR-IXPWINDi_r2_v1.2.,2013-03-26 21:28:00,
2013-03-26 17:33:00,31.9,27.3,30.19,NW,304,0.0,9.0,83,0.00,,,0.12,84,HR-IXPWINDi_r2_v1.2.,2013-03-26 21:33:00,
2013-03-26 17:38:00,31.9,27.3,30.19,NW,312,0.0,6.0,83,0.00,,,0.12,90,HR-IXPWINDi_r2_v1.2.,2013-03-26 21:38:00,
2013-03-26 17:44:00,32.1,27.5,30.19,West,266,0.0,6.0,83,0.00,,,0.12,88,HR-IXPWINDi_r2_v1.2.,2013-03-26 21:44:00,
2013-03-26 17:49:00,32.3,27.7,30.19,WNW,284,1.0,4.0,83,0.00,,,0.12,84,HR-IXPWINDi_r2_v1.2.,2013-03-26 21:49:00,
2013-03-26 17:54:00,32.3,27.7,30.19,West,264,0.0,5.0,83,0.00,,,0.12,100,HR-IXPWINDi_r2_v1.2.,2013-03-26 21:54:00,
2013-03-26 17:59:00,32.4,27.8,30.19,WNW,296,0.0,5.0,83,0.00,,,0.12,74,HR-IXPWINDi_r2_v1.2.,2013-03-26 21:59:00,
2013-03-26 18:04:00,32.3,27.4,30.19,SW,227,3.0,5.0,82,0.00,,,0.12,65,HR-IXPWINDi_r2_v1.2.,2013-03-26 22:04:00,
2013-03-26 18:10:00,32.0,27.1,30.20,NNW,327,0.0,4.0,82,0.00,,,0.12,37,HR-IXPWINDi_r2_v1.2.,2013-03-26 22:10:00,
2013-03-26 18:15:00,32.0,27.4,30.20,NW,324,3.0,4.0,83,0.00,,,0.12,33,HR-IXPWINDi_r2_v1.2.,2013-03-26 22:15:00,
2013-03-26 18:20:00,31.9,27.3,30.20,NE,40,0.0,5.0,83,0.00,,,0.12,40,HR-IXPWINDi_r2_v1.2.,2013-03-26 22:20:00,
2013-03-26 18:25:00,31.9,27.3,30.21,NNW,337,2.0,5.0,83,0.00,,,0.12,56,HR-IXPWINDi_r2_v1.2.,2013-03-26 22:25:00,
2013-03-26 18:31:00,31.7,26.8,30.21,North,355,3.0,7.0,82,0.00,,,0.12,44,HR-IXPWINDi_r2_v1.2.,2013-03-26 22:31:00,
2013-03-26 18:36:00,31.8,26.6,30.21,North,360,8.0,8.0,81,0.00,,,0.12,28,HR-IXPWINDi_r2_v1.2.,2013-03-26 22:36:00,
2013-03-26 18:41:00,31.7,26.2,30.21,NNW,346,0.0,11.0,80,0.00,,,0.12,25,HR-IXPWINDi_r2_v1.2.,2013-03-26 22:41:00,
2013-03-26 18:46:00,31.8,26.3,30.21,WNW,291,0.0,11.0,80,0.00,,,0.12,18,HR-IXPWINDi_r2_v1.2.,2013-03-26 22:46:00,
2013-03-26 18:51:00,31.7,25.9,30.22,North,9,1.0,8.0,79,0.00,,,0.12,12,HR-IXPWINDi_r2_v1.2.,2013-03-26 22:51:00,
2013-03-26 18:56:00,31.7,25.9,30.22,North,355,0.0,9.0,79,0.00,,,0.12,11,HR-IXPWINDi_r2_v1.2.,2013-03-26 22:56:00,
2013-03-26 19:01:00,31.7,25.9,30.22,NNW,329,4.0,9.0,79,0.00,,,0.12,12,HR-IXPWINDi_r2_v1.2.,2013-03-26 23:01:00,
2013-03-26 19:06:00,31.7,25.9,30.22,NW,321,2.0,5.0,79,0.00,,,0.12,21,HR-IXPWINDi_r2_v1.2.,2013-03-26 23:06:00,
2013-03-26 19:12:00,31.6,26.1,30.22,NNW,346,2.0,5.0,80,0.00,,,0.12,19,HR-IXPWINDi_r2_v1.2.,2013-03-26 23:12:00,
2013-03-26 19:17:00,31.6,26.1,30.22,North,350,1.0,13.0,80,0.00,,,0.12,16,HR-IXPWINDi_r2_v1.2.,2013-03-26 23:17:00,
2013-03-26 19:22:00,31.5,26.0,30.22,SW,226,2.0,13.0,80,0.00,,,0.12,16,HR-IXPWINDi_r2_v1.2.,2013-03-26 23:22:00,
2013-03-26 19:27:00,31.6,26.4,30.23,North,355,0.0,6.0,81,0.00,,,0.12,14,HR-IXPWINDi_r2_v1.2.,2013-03-26 23:27:00,
2013-03-26 19:32:00,31.4,26.2,30.23,WSW,239,1.0,5.0,81,0.00,,,0.12,11,HR-IXPWINDi_r2_v1.2.,2013-03-26 23:32:00,
2013-03-26 19:38:00,31.4,26.5,30.23,South,182,3.0,5.0,82,0.00,,,0.12,7,HR-IXPWINDi_r2_v1.2.,2013-03-26 23:38:00,
2013-03-26 19:43:00,31.4,26.2,30.23,SSW,197,2.0,4.0,81,0.00,,,0.12,0,HR-IXPWINDi_r2_v1.2.,2013-03-26 23:43:00,
2013-03-26 19:48:00,31.4,26.2,30.23,WSW,250,0.0,3.0,81,0.00,,,0.12,0,HR-IXPWINDi_r2_v1.2.,2013-03-26 23:48:00,
2013-03-26 19:53:00,31.5,26.3,30.23,WNW,297,3.0,3.0,81,0.00,,,0.12,0,HR-IXPWINDi_r2_v1.2.,2013-03-26 23:53:00,
2013-03-26 19:58:00,31.4,26.2,30.24,NNW,339,1.0,4.0,81,0.00,,,0.12,0,HR-IXPWINDi_r2_v1.2.,2013-03-26 23:58:00,
2013-03-26 20:04:00,31.4,26.2,30.24,North,355,0.0,4.0,81,0.00,,,0.12,0,HR-IXPWINDi_r2_v1.2.,2013-03-27 00:04:00,
2013-03-26 20:09:00,31.5,26.3,30.24,North,355,0.0,4.0,81,0.00,,,0.12,0,HR-IXPWINDi_r2_v1.2.,2013-03-27 00:09:00,
2013-03-26 20:14:00,31.5,26.3,30.24,SSW,198,3.0,5.0,81,0.00,,,0.12,0,HR-IXPWINDi_r2_v1.2.,2013-03-27 00:14:00,
2013-03-26 20:19:00,31.3,26.1,30.24,NNW,338,0.0,6.0,81,0.00,,,0.12,0,HR-IXPWINDi_r2_v1.2.,2013-03-27 00:19:00,
2013-03-26 20:24:00,31.4,26.5,30.24,NNW,338,0.0,6.0,82,0.00,,,0.12,0,HR-IXPWINDi_r2_v1.2.,2013-03-27 00:24:00,
2013-03-26 20:30:00,31.3,26.4,30.24,NNW,338,0.0,3.0,82,0.00,,,0.12,0,HR-IXPWINDi_r2_v1.2.,2013-03-27 00:30:00,
2013-03-26 20:35:00,31.2,26.6,30.24,North,355,0.0,5.0,83,0.00,,,0.12,0,HR-IXPWINDi_r2_v1.2.,2013-03-27 00:35:00,
2013-03-26 20:40:00,31.0,26.4,30.25,North,11,6.0,6.0,83,0.00,,,0.12,0,HR-IXPWINDi_r2_v1.2.,2013-03-27 00:40:00,
2013-03-26 20:45:00,31.0,26.4,30.25,North,355,5.0,8.0,83,0.00,,,0.12,0,HR-IXPWINDi_r2_v1.2.,2013-03-27 00:45:00,
2013-03-26 20:50:00,31.2,26.9,30.25,North,349,0.0,8.0,84,0.00,,,0.12,0,HR-IXPWINDi_r2_v1.2.,2013-03-27 00:50:00,
2013-03-26 20:56:00,31.1,26.5,30.25,NW,305,0.0,6.0,83,0.00,,,0.12,0,HR-IXPWINDi_r2_v1.2.,2013-03-27 00:56:00,
2013-03-26 21:01:00,31.1,26.8,30.25,North,351,2.0,6.0,84,0.00,,,0.12,0,HR-IXPWINDi_r2_v1.2.,2013-03-27 01:01:00,
2013-03-26 21:06:00,31.0,26.4,30.26,WNW,286,0.0,5.0,83,0.00,,,0.12,0,HR-IXPWINDi_r2_v1.2.,2013-03-27 01:06:00,
2013-03-26 21:11:00,31.0,26.7,30.26,South,169,1.0,5.0,84,0.00,,,0.12,0,HR-IXPWINDi_r2_v1.2.,2013-03-27 01:11:00,
2013-03-26 21:17:00,31.0,26.7,30.26,NW,323,0.0,6.0,84,0.00,,,0.12,0,HR-IXPWINDi_r2_v1.2.,2013-03-27 01:17:00,
2013-03-26 21:22:00,31.0,26.4,30.26,NW,323,0.0,6.0,83,0.00,,,0.12,0,HR-IXPWINDi_r2_v1.2.,2013-03-27 01:22:00,
2013-03-26 21:27:00,31.0,26.7,30.27,NW,323,0.0,2.0,84,0.00,,,0.12,0,HR-IXPWINDi_r2_v1.2.,2013-03-27 01:27:00,
2013-03-26 21:32:00,31.0,26.7,30.27,SSW,208,2.0,9.0,84,0.00,,,0.12,0,HR-IXPWINDi_r2_v1.2.,2013-03-27 01:32:00,
2013-03-26 21:38:00,30.8,26.8,30.27,SSW,209,5.0,9.0,85,0.00,,,0.12,0,HR-IXPWINDi_r2_v1.2.,2013-03-27 01:38:00,
2013-03-26 21:43:00,30.7,26.4,30.27,NNW,341,3.0,8.0,84,0.00,,,0.12,0,HR-IXPWINDi_r2_v1.2.,2013-03-27 01:43:00,
2013-03-26 21:48:00,30.8,26.8,30.27,NNW,342,0.0,8.0,85,0.00,,,0.12,0,HR-IXPWINDi_r2_v1.2.,2013-03-27 01:48:00,
2013-03-26 21:53:00,30.7,26.7,30.27,SSE,154,0.0,4.0,85,0.00,,,0.12,0,HR-IXPWINDi_r2_v1.2.,2013-03-27 01:53:00,
2013-03-26 21:58:00,30.6,26.6,30.27,NNW,337,3.0,5.0,85,0.00,,,0.12,0,HR-IXPWINDi_r2_v1.2.,2013-03-27 01:58:00,
2013-03-26 22:03:00,30.6,26.6,30.28,NNW,337,0.0,5.0,85,0.00,,,0.12,0,HR-IXPWINDi_r2_v1.2.,2013-03-27 02:03:00,
2013-03-26 22:08:00,30.5,26.8,30.28,WSW,258,0.0,4.0,86,0.00,,,0.12,0,HR-IXPWINDi_r2_v1.2.,2013-03-27 02:08:00,
2013-03-26 22:14:00,30.5,26.8,30.28,WSW,256,1.0,4.0,86,0.00,,,0.12,0,HR-IXPWINDi_r2_v1.2.,2013-03-27 02:14:00,
2013-03-26 22:19:00,30.5,26.8,30.28,NW,313,4.0,9.0,86,0.00,,,0.12,0,HR-IXPWINDi_r2_v1.2.,2013-03-27 02:19:00,
2013-03-26 22:24:00,30.5,26.8,30.28,WNW,286,0.0,9.0,86,0.00,,,0.12,0,HR-IXPWINDi_r2_v1.2.,2013-03-27 02:24:00,
2013-03-26 22:29:00,30.6,26.6,30.28,South,169,4.0,7.0,85,0.00,,,0.12,0,HR-IXPWINDi_r2_v1.2.,2013-03-27 02:29:00,
2013-03-26 22:34:00,30.5,26.2,30.29,NNW,336,5.0,19.0,84,0.00,,,0.12,0,HR-IXPWINDi_r2_v1.2.,2013-03-27 02:34:00,
2013-03-26 22:39:00,30.6,26.0,30.28,SW,233,4.0,19.0,83,0.00,,,0.12,0,HR-IXPWINDi_r2_v1.2.,2013-03-27 02:39:00,
2013-03-26 22:44:00,30.7,26.1,30.29,NNE,13,4.0,8.0,83,0.00,,,0.12,0,HR-IXPWINDi_r2_v1.2.,2013-03-27 02:44:00,
2013-03-26 22:49:00,30.7,25.6,30.29,NNW,344,2.0,9.0,81,0.00,,,0.12,0,HR-IXPWINDi_r2_v1.2.,2013-03-27 02:49:00,
2013-03-26 22:54:00,30.8,25.6,30.29,NNW,335,0.0,9.0,81,0.00,,,0.12,0,HR-IXPWINDi_r2_v1.2.,2013-03-27 02:54:00,
2013-03-26 22:59:00,30.8,25.6,30.29,NW,317,2.0,7.0,81,0.00,,,0.12,0,HR-IXPWINDi_r2_v1.2.,2013-03-27 02:59:00,
2013-03-26 23:04:00,30.8,25.6,30.29,NNE,21,0.0,7.0,81,0.00,,,0.12,0,HR-IXPWINDi_r2_v1.2.,2013-03-27 03:04:00,
2013-03-26 23:09:00,30.9,25.7,30.29,NNW,342,1.0,7.0,81,0.00,,,0.12,0,HR-IXPWINDi_r2_v1.2.,2013-03-27 03:09:00,
2013-03-26 23:14:00,30.8,25.6,30.29,SE,146,5.0,6.0,81,0.00,,,0.12,0,HR-IXPWINDi_r2_v1.2.,2013-03-27 03:14:00,
2013-03-26 23:19:00,30.9,25.7,30.29,North,355,5.0,7.0,81,0.00,,,0.12,0,HR-IXPWINDi_r2_v1.2.,2013-03-27 03:19:00,
2013-03-26 23:24:00,30.8,25.4,30.29,West,265,0.0,7.0,80,0.00,,,0.12,0,HR-IXPWINDi_r2_v1.2.,2013-03-27 03:24:00,
2013-03-26 23:30:00,30.8,25.4,30.29,SW,233,0.0,7.0,80,0.00,,,0.12,0,HR-IXPWINDi_r2_v1.2.,2013-03-27 03:30:00,
2013-03-26 23:35:00,30.8,25.4,30.29,SW,229,0.0,4.0,80,0.00,,,0.12,0,HR-IXPWINDi_r2_v1.2.,2013-03-27 03:35:00,
2013-03-26 23:40:00,30.8,25.6,30.29,SW,229,3.0,4.0,81,0.00,,,0.12,0,HR-IXPWINDi_r2_v1.2.,2013-03-27 03:40:00,
2013-03-26 23:45:00,30.8,25.6,30.29,NW,320,2.0,7.0,81,0.00,,,0.12,0,HR-IXPWINDi_r2_v1.2.,2013-03-27 03:45:00,
2013-03-26 23:50:00,30.7,25.8,30.29,SW,217,2.0,7.0,82,0.00,,,0.12,0,HR-IXPWINDi_r2_v1.2.,2013-03-27 03:50:00,
2013-03-26 23:55:00,30.7,25.8,30.29,SW,225,3.0,6.0,82,0.00,,,0.12,0,HR-IXPWINDi_r2_v1.2.,2013-03-27 03:55:00,